| time (UTC) | temp C | wind direction | speed KPH | gust KPH | rain 1hr cm | rain 24hr cm | rain mn cm | humidity % | barometer mb |
| 20260506013033 | 9 | 43 | 0.0 | 3.2 | 0.00 | 0.00 | 0.00 | 82 | 1013.2 |
| 20260506011536 | 10 | 43 | 0.0 | 3.2 | 0.00 | 0.00 | 0.00 | 82 | 1013.2 |
| 20260506010030 | 10 | 41 | 0.0 | 3.2 | 0.00 | 0.00 | 0.00 | 82 | 1013.2 |
| 20260506004530 | 10 | 47 | 0.0 | 4.8 | 0.00 | 0.00 | 0.00 | 82 | 1013.3 |
| 20260506003028 | 10 | 48 | 1.6 | 4.8 | 0.00 | 0.00 | 0.00 | 82 | 1013.2 |
| 20260506001527 | 10 | 54 | 1.6 | 4.8 | 0.00 | 0.00 | 0.00 | 82 | 1013.2 |
| 20260506000030 | 10 | 48 | 0.0 | 6.4 | 0.00 | 0.00 | 0.00 | 81 | 1013.3 |
| 20260505234525 | 10 | 49 | 1.6 | 4.8 | 0.00 | 0.00 | 0.00 | 82 | 1013.3 |
| 20260505233023 | 10 | 48 | 1.6 | 4.8 | 0.00 | 0.00 | 0.00 | 83 | 1013.3 |
| 20260505231524 | 10 | 47 | 0.0 | 3.2 | 0.00 | 0.00 | 0.00 | 83 | 1013.3 |
| 20260505230019 | 10 | 47 | 0.0 | 3.2 | 0.00 | 0.00 | 0.00 | 82 | 1013.4 |
| 20260505224519 | 10 | 47 | 0.0 | 3.2 | 0.00 | 0.00 | 0.00 | 81 | 1013.5 |
| 20260505223026 | 10 | 47 | 0.0 | 3.2 | 0.00 | 0.00 | 0.00 | 80 | 1013.5 |
| 20260505221518 | 10 | 47 | 0.0 | 1.6 | 0.00 | 0.00 | 0.00 | 81 | 1013.6 |
| 20260505220017 | 10 | 47 | 0.0 | 1.6 | 0.00 | 0.00 | 0.00 | 81 | 1013.6 |
| 20260505214524 | 10 | 47 | 0.0 | 3.2 | 0.00 | 0.00 | 0.00 | 81 | 1013.4 |
| 20260505213019 | 10 | 47 | 0.0 | 1.6 | 0.00 | 0.00 | 0.00 | 82 | 1013.5 |
| 20260505211516 | 10 | 47 | 0.0 | 0.0 | 0.00 | 0.00 | 0.00 | 82 | 1013.5 |
| 20260505210015 | 10 | 47 | 0.0 | 0.0 | 0.00 | 0.00 | 0.00 | 81 | 1013.5 |
| 20260505204516 | 10 | 47 | 0.0 | 0.0 | 0.00 | 0.00 | 0.00 | 80 | 1013.5 |
| 20260505203014 | 10 | 47 | 0.0 | 0.0 | 0.00 | 0.00 | 0.00 | 79 | 1013.4 |
| 20260505201514 | 10 | 47 | 0.0 | 0.0 | 0.00 | 0.00 | 0.00 | 76 | 1013.3 |
| 20260505200013 | 10 | 47 | 0.0 | 0.0 | 0.00 | 0.00 | 0.00 | 74 | 1013.2 |
| 20260505194513 | 10 | 47 | 0.0 | 0.0 | 0.00 | 0.00 | 0.00 | 72 | 1012.9 |
| 20260505193012 | 11 | 47 | 0.0 | 0.0 | 0.00 | 0.00 | 0.00 | 71 | 1012.8 |
| 20260505191515 | 11 | 47 | 0.0 | 0.0 | 0.00 | 0.00 | 0.00 | 70 | 1012.8 |
| 20260505190019 | 11 | 47 | 0.0 | 0.0 | 0.00 | 0.00 | 0.00 | 68 | 1012.7 |
| 20260505184512 | 11 | 47 | 0.0 | 1.6 | 0.00 | 0.00 | 0.00 | 67 | 1012.6 |
| 20260505183010 | 12 | 47 | 0.0 | 1.6 | 0.00 | 0.00 | 0.00 | 67 | 1012.4 |
| 20260505181509 | 12 | 47 | 0.0 | 1.6 | 0.00 | 0.00 | 0.00 | 66 | 1012.5 |
| 20260505180014 | 12 | 47 | 0.0 | 1.6 | 0.00 | 0.00 | 0.00 | 65 | 1012.4 |
| 20260505174509 | 13 | 47 | 0.0 | 1.6 | 0.00 | 0.00 | 0.00 | 63 | 1012.5 |
| 20260505173007 | 13 | 47 | 0.0 | 3.2 | 0.00 | 0.00 | 0.00 | 62 | 1012.5 |
| 20260505171508 | 14 | 47 | 0.0 | 1.6 | 0.00 | 0.00 | 0.00 | 62 | 1012.4 |
| 20260505170007 | 14 | 47 | 0.0 | 3.2 | 0.00 | 0.00 | 0.00 | 61 | 1012.4 |
| 20260505164505 | 15 | 47 | 0.0 | 3.2 | 0.00 | 0.00 | 0.00 | 60 | 1012.5 |
| 20260505163009 | 15 | 47 | 0.0 | 4.8 | 0.00 | 0.00 | 0.00 | 59 | 1012.5 |
| 20260505161502 | 15 | 47 | 0.0 | 3.2 | 0.00 | 0.00 | 0.00 | 58 | 1012.5 |
| 20260505153103 | 16 | 59 | 0.0 | 4.8 | 0.00 | 0.00 | 0.00 | 57 | 1012.6 |
| 20260505151604 | 16 | 43 | 0.0 | 3.2 | 0.00 | 0.00 | 0.00 | 55 | 1012.7 |
| 20260505140107 | 16 | 44 | 0.0 | 4.8 | 0.00 | 0.00 | 0.00 | 62 | 1012.9 |
| 20260505124536 | 14 | 51 | 0.0 | 3.2 | 0.00 | 0.00 | 0.00 | 71 | 1013.2 |
| 20260505123031 | 14 | 63 | 0.0 | 3.2 | 0.00 | 0.00 | 0.00 | 69 | 1013.3 |
| 20260505121535 | 14 | 63 | 0.0 | 4.8 | 0.00 | 0.00 | 0.00 | 69 | 1013.3 |
| 20260505120041 | 14 | 63 | 0.0 | 1.6 | 0.00 | 0.00 | 0.00 | 73 | 1013.4 |
| 20260505114526 | 13 | 63 | 0.0 | 3.2 | 0.00 | 0.00 | 0.00 | 70 | 1013.4 |
| 20260505113024 | 13 | 67 | 0.0 | 4.8 | 0.00 | 0.00 | 0.00 | 73 | 1013.5 |
| 20260505111523 | 13 | 67 | 0.0 | 1.6 | 0.00 | 0.00 | 0.00 | 76 | 1013.5 |
| 20260505101514 | 13 | 57 | 0.0 | 4.8 | 0.00 | 0.00 | 0.00 | 69 | 1013.5 |
| 20260505100012 | 14 | 43 | 0.0 | 3.2 | 0.00 | 0.00 | 0.00 | 69 | 1013.6 |
| 20260505094505 | 14 | 42 | 0.0 | 4.8 | 0.00 | 0.00 | 0.00 | 71 | 1013.7 |
| 20260505093002 | 13 | 53 | 0.0 | 3.2 | 0.00 | 0.00 | 0.00 | 72 | 1013.8 |
| 20260505091607 | 13 | 61 | 0.0 | 3.2 | 0.00 | 0.00 | 0.00 | 72 | 1013.8 |
| 20260505090057 | 13 | 41 | 0.0 | 3.2 | 0.00 | 0.00 | 0.00 | 75 | 1013.9 |
| 20260505084556 | 13 | 40 | 0.0 | 4.8 | 0.00 | 0.00 | 0.00 | 76 | 1014.0 |
| 20260505083058 | 12 | 46 | 0.0 | 3.2 | 0.00 | 0.00 | 0.00 | 78 | 1014.1 |
| 20260505081549 | 12 | 44 | 0.0 | 3.2 | 0.00 | 0.00 | 0.00 | 78 | 1014.1 |
| 20260505080046 | 11 | 44 | 0.0 | 3.2 | 0.00 | 0.00 | 0.00 | 79 | 1014.0 |
| 20260505074544 | 11 | 50 | 0.0 | 1.6 | 0.00 | 0.00 | 0.00 | 80 | 1013.8 |
| 20260505073051 | 11 | 49 | 0.0 | 1.6 | 0.00 | 0.00 | 0.00 | 82 | 1014.0 |
| 20260505071552 | 10 | 53 | 0.0 | 0.0 | 0.00 | 0.00 | 0.00 | 84 | 1014.1 |
| 20260505070040 | 10 | 57 | 0.0 | 0.0 | 0.00 | 0.00 | 0.00 | 83 | 1014.1 |
| 20260505064540 | 10 | 41 | 0.0 | 0.0 | 0.00 | 0.00 | 0.00 | 84 | 1014.1 |
| 20260505063037 | 10 | 49 | 0.0 | 0.0 | 0.00 | 0.00 | 0.00 | 86 | 1014.1 |
| 20260505061536 | 10 | 49 | 0.0 | 0.0 | 0.00 | 0.00 | 0.00 | 86 | 1014.0 |
| 20260505060045 | 10 | 49 | 0.0 | 0.0 | 0.00 | 0.00 | 0.00 | 86 | 1013.9 |
| 20260505054535 | 10 | 49 | 0.0 | 0.0 | 0.00 | 0.00 | 0.00 | 88 | 1014.1 |
| 20260505053033 | 10 | 49 | 0.0 | 0.0 | 0.00 | 0.00 | 0.00 | 88 | 1014.1 |
| 20260505051537 | 9 | 49 | 0.0 | 0.0 | 0.00 | 0.00 | 0.00 | 89 | 1014.2 |
| 20260505041528 | 10 | 49 | 0.0 | 0.0 | 0.00 | 0.00 | 0.00 | 88 | 1014.4 |
| 20260505040026 | 10 | 49 | 0.0 | 0.0 | 0.00 | 0.00 | 0.00 | 88 | 1014.4 |
| 20260505034525 | 10 | 49 | 0.0 | 0.0 | 0.00 | 0.00 | 0.00 | 88 | 1014.4 |
| 20260505033024 | 10 | 49 | 0.0 | 0.0 | 0.00 | 0.00 | 0.00 | 88 | 1014.4 |
| 20260505031523 | 10 | 49 | 0.0 | 0.0 | 0.00 | 0.00 | 0.00 | 89 | 1014.6 |
| 20260505030022 | 10 | 49 | 0.0 | 0.0 | 0.00 | 0.00 | 0.00 | 89 | 1014.7 |
| 20260505024521 | 10 | 49 | 0.0 | 0.0 | 0.00 | 0.00 | 0.00 | 89 | 1014.7 |
| 20260505023023 | 10 | 49 | 0.0 | 0.0 | 0.00 | 0.00 | 0.00 | 90 | 1014.8 |
| 20260505021526 | 10 | 49 | 0.0 | 0.0 | 0.00 | 0.00 | 0.00 | 90 | 1014.9 |
| 20260505020017 | 10 | 49 | 0.0 | 0.0 | 0.00 | 0.00 | 0.00 | 90 | 1014.9 |
| 20260505014517 | 10 | 49 | 0.0 | 0.0 | 0.00 | 0.00 | 0.00 | 90 | 1015.0 |